Lid_Strength_Index
5 5 5 8 9 6 9 9 11 9 9 7 6 7 6 5 5 5 4 4 3 2 2 2 1 1 1 1 1 0 0 0
6 5 5 6 5 9 9 13 14 11 11 10 8 8 6 6 6 5 4 4 3 3 2 2 1 1 1 1 1 0 0 0
6 7 8 7 8 7 8 9 12 13 10 7 7 7 7 6 5 5 4 4 4 3 2 2 1 1 1 1 1 1 0 0
8 6 6 7 7 7 10 11 10 11 10 6 6 6 6 6 5 4 4 4 3 3 2 2 2 1 1 1 1 0 0 0
10 8 7 8 7 7 7 7 10 12 11 6 6 6 6 6 5 4 4 4 3 3 3 2 2 2 1 1 1 0 0 0
11 9 7 9 8 7 7 10 10 10 9 7 7 7 6 5 5 4 4 4 4 4 3 2 2 1 2 1 1 0 0 1
7 7 7 7 8 8 8 8 10 8 9 6 6 6 6 5 4 5 4 4 3 3 3 3 3 2 1 1 1 1 1 1
8 7 7 8 7 7 7 7 8 7 8 5 5 5 5 5 5 5 5 4 4 3 3 3 3 3 2 2 2 1 1 1
10 7 8 10 8 7 7 6 7 9 6 5 6 6 6 5 5 5 4 4 4 3 3 2 2 2 2 1 1 1 1 1
9 9 13 7 5 6 6 6 5 6 6 6 5 5 4 4 4 4 4 4 3 2 2 2 1 1 1 1 1 1 1 1
11 11 8 8 6 6 7 7 5 5 5 5 5 5 5 4 3 3 3 3 2 1 2 2 2 1 1 1 1 1 1 1
10 12 13 7 5 4 5 10 4 5 6 6 5 8 6 3 3 3 3 2 2 2 1 2 2 1 2 2 2 2 1 1
10 11 8 6 5 4 11 9 5 4 5 5 6 5 4 3 3 2 2 2 2 1 1 1 1 1 2 2 2 1 1 1
9 11 12 4 5 8 6 4 4 4 4 5 4 4 3 3 3 3 3 2 2 1 1 1 1 2 2 2 1 1 0 1
8 8 5 4 4 3 3 4 4 4 4 4 4 4 3 3 3 3 3 2 1 1 1 1 1 1 2 2 1 1 1 1
8 5 5 5 4 3 3 3 3 3 3 3 4 3 3 3 3 3 2 2 2 2 2 2 1 1 1 1 1 1 2 2
7 6 5 4 4 3 3 3 3 3 3 3 3 3 3 3 3 2 2 2 2 2 1 1 1 1 1 0 2 2 2 3
9 5 5 4 3 3 3 3 3 3 3 3 3 3 3 3 2 2 2 2 2 2 2 1 1 1 1 0 2 3 4 4
5 4 4 3 3 2 3 3 3 3 3 3 3 2 2 3 2 3 2 2 2 2 2 1 1 1 1 0 1 2 3 4